Terminal Aerodrome Forecast
Issued by NWS

Home | Current Version | Previous Version | Text Only | Print | Product List | Glossary On
Versions: 1 2 3 4 5 6 7 8 9 10 11 12 13 14 15 16 17 18 19 20
000
FTUS42 KMLB 261800 AAA
TAFSFB
TAF AMD
KSFB 261836Z 2619/2718 28022G29KT P6SM FEW040 WS020/28040KT
     FM270000 28016G23KT P6SM SKC
     FM270900 29011KT P6SM SKC=

USA.gov is the U.S. government's official web portal to all federal, state and local government web resources and services.